EW3714 Weather Reports


Display with metric or nautical units.
time (UTC)temp
F
wind
direction
speed
MPH
gust
MPH
rain 1hr
in
rain 24hr
in
rain mn
in
humidity
%
barometer
mb
20210616013545 91 157 0.0 2.0 0.00 0.00 0.00 50 1012.5
20210616012545 91 86 0.0 3.0 0.00 0.00 0.00 49 1012.4
20210616011546 92 311 0.0 3.0 0.00 0.00 0.00 48 1012.3
20210616010545 92 252 0.0 3.0 0.00 0.00 0.00 47 1012.1
20210616005546 93 355 0.0 5.0 0.00 0.00 0.00 47 1012.1
20210616004546 93 14 0.0 8.0 0.00 0.00 0.00 46 1012.0
20210616003546 94 346 0.0 8.0 0.00 0.00 0.00 45 1012.0
20210616002545 94 360 0.0 9.0 0.00 0.00 0.00 44 1011.9
20210616001546 95 34 0.0 6.0 0.00 0.00 0.00 43 1011.9
20210616000546 95 164 0.0 5.0 0.00 0.00 0.00 43 1011.8
20210615235545 96 15 0.0 4.0 0.00 0.00 0.00 43 1011.7
20210615234546 96 325 0.0 3.0 0.00 0.00 0.00 43 1011.6
20210615233545 96 19 0.0 6.0 0.00 0.00 0.00 42 1011.7
20210615232546 96 337 0.0 6.0 0.00 0.00 0.00 42 1011.7
20210615231545 96 51 3.0 9.0 0.00 0.00 0.00 41 1011.7
20210615230546 97 313 0.0 7.0 0.00 0.00 0.00 42 1011.8
20210615225545 98 351 1.0 1.0 0.00 0.00 0.00 41 1011.8
20210615224546 98 24 0.0 5.0 0.00 0.00 0.00 41 1011.8
20210615223546 98 30 0.0 8.0 0.00 0.00 0.00 39 1011.9
20210615222546 99 22 0.0 8.0 0.00 0.00 0.00 38 1011.9
20210615221545 100 11 7.0 8.0 0.00 0.00 0.00 37 1011.9
20210615220546 100 28 0.0 4.0 0.00 0.00 0.00 36 1012.0
20210615215545 100 348 8.0 8.0 0.00 0.00 0.00 38 1012.1
20210615214545 100 319 0.0 3.0 0.00 0.00 0.00 36 1012.2
20210615213546 100 305 0.0 0.0 0.00 0.00 0.00 39 1012.3
20210615212546 100 325 0.0 7.0 0.00 0.00 0.00 39 1012.2
20210615211546 100 355 1.0 8.0 0.00 0.00 0.00 37 1012.2
20210615210546 101 191 0.0 10.0 0.00 0.00 0.00 39 1012.3
20210615205546 101 355 0.0 10.0 0.00 0.00 0.00 37 1012.4
20210615204546 101 10 1.0 4.0 0.00 0.00 0.00 35 1012.5
20210615203546 101 331 0.0 6.0 0.00 0.00 0.00 32 1012.5
20210615202546 102 44 2.0 10.0 0.00 0.00 0.00 32 1012.7
20210615201546 101 337 0.0 6.0 0.00 0.00 0.00 33 1012.8
20210615200546 102 257 0.0 8.0 0.00 0.00 0.00 35 1012.8
20210615195546 101 27 0.0 3.0 0.00 0.00 0.00 37 1012.9
20210615194546 101 14 0.0 5.0 0.00 0.00 0.00 38 1013.0
20210615193546 100 23 0.0 5.0 0.00 0.00 0.00 38 1013.0
20210615192546 100 66 0.0 3.0 0.00 0.00 0.00 40 1013.2
20210615191546 101 336 0.0 6.0 0.00 0.00 0.00 39 1013.3
20210615190546 100 346 0.0 3.0 0.00 0.00 0.00 41 1013.4
20210615185546 99 41 0.0 6.0 0.00 0.00 0.00 43 1013.4
20210615184546 101 30 4.0 5.0 0.00 0.00 0.00 43 1013.7
20210615183546 101 29 2.0 8.0 0.00 0.00 0.00 43 1013.7
20210615182546 102 311 0.0 5.0 0.00 0.00 0.00 41 1013.7
20210615181546 100 33 3.0 3.0 0.00 0.00 0.00 44 1013.7
20210615180546 99 44 0.0 5.0 0.00 0.00 0.00 45 1013.8
20210615175546 100 31 0.0 6.0 0.00 0.00 0.00 46 1013.9
20210615174546 99 31 1.0 4.0 0.00 0.00 0.00 48 1014.0
20210615173546 98 324 0.0 4.0 0.00 0.00 0.00 48 1014.0
20210615172546 99 48 0.0 8.0 0.00 0.00 0.00 47 1014.0
20210615171546 100 339 0.0 4.0 0.00 0.00 0.00 45 1014.1
20210615170546 100 360 4.0 4.0 0.00 0.00 0.00 46 1014.1
20210615165546 98 144 0.0 8.0 0.00 0.00 0.00 47 1014.2
20210615164546 97 55 0.0 4.0 0.00 0.00 0.00 49 1014.2
20210615163546 98 339 0.0 0.0 0.00 0.00 0.00 50 1014.3
20210615162546 98 22 0.0 2.0 0.00 0.00 0.00 51 1014.2
20210615161546 97 5 0.0 6.0 0.00 0.00 0.00 53 1014.2
20210615160546 96 244 0.0 4.0 0.00 0.00 0.00 54 1014.2
20210615155546 95 329 0.0 0.0 0.00 0.00 0.00 55 1014.2
20210615154546 95 17 0.0 4.0 0.00 0.00 0.00 55 1014.3
20210615153546 94 217 0.0 3.0 0.00 0.00 0.00 58 1014.4
20210615152546 93 32 0.0 0.0 0.00 0.00 0.00 59 1014.4
20210615151546 92 20 0.0 2.0 0.00 0.00 0.00 61 1014.5
20210615150546 91 229 1.0 2.0 0.00 0.00 0.00 63 1014.4
20210615145546 89 28 0.0 2.0 0.00 0.00 0.00 64 1014.5
20210615144546 88 31 0.0 0.0 0.00 0.00 0.00 66 1014.5
20210615143546 86 9 0.0 1.0 0.00 0.00 0.00 68 1014.5
20210615142546 84 350 0.0 1.0 0.00 0.00 0.00 72 1014.6
20210615141546 83 332 0.0 3.0 0.00 0.00 0.00 74 1014.6
20210615140546 82 17 0.0 0.0 0.00 0.00 0.00 75 1014.6
20210615135546 82 30 0.0 2.0 0.00 0.00 0.00 77 1014.5
20210615134546 81 317 0.0 2.0 0.00 0.00 0.00 79 1014.5
20210615133546 80 30 0.0 3.0 0.00 0.00 0.00 80 1014.4
20210615132546 79 345 0.0 1.0 0.00 0.00 0.00 82 1014.4
20210615131546 78 25 0.0 0.0 0.00 0.00 0.00 84 1014.2
20210615130546 78 50 0.0 2.0 0.00 0.00 0.00 84 1014.1
20210615125546 77 46 0.0 3.0 0.00 0.00 0.00 87 1014.1
20210615124546 75 60 0.0 1.0 0.00 0.00 0.00 91 1014.0
20210615123546 74 308 0.0 0.0 0.00 0.00 0.00 91 1014.0
20210615122546 73 308 0.0 1.0 0.00 0.00 0.00 90 1013.9
20210615121546 73 308 0.0 1.0 0.00 0.00 0.00 90 1013.7
20210615120546 73 308 0.0 0.0 0.00 0.00 0.00 90 1013.7
20210615115546 73 308 0.0 1.0 0.00 0.00 0.00 89 1013.6
20210615114547 73 308 0.0 0.0 0.00 0.00 0.00 89 1013.5
20210615113546 73 308 0.0 0.0 0.00 0.00 0.00 88 1013.4
20210615112546 73 308 0.0 0.0 0.00 0.00 0.00 88 1013.3
20210615111547 73 308 0.0 0.0 0.00 0.00 0.00 88 1013.3
20210615110547 73 308 0.0 0.0 0.00 0.00 0.00 88 1013.3
20210615105546 73 308 0.0 0.0 0.00 0.00 0.00 88 1013.2
20210615104547 74 308 0.0 0.0 0.00 0.00 0.00 87 1013.1
20210615103547 74 308 0.0 0.0 0.00 0.00 0.00 87 1013.1
20210615102547 74 308 0.0 0.0 0.00 0.00 0.00 87 1013.2
20210615101546 74 308 0.0 0.0 0.00 0.00 0.00 87 1013.2
20210615100546 74 308 0.0 0.0 0.00 0.00 0.00 86 1013.0
20210615095547 74 308 0.0 0.0 0.00 0.00 0.00 86 1012.9
20210615094547 75 308 0.0 0.0 0.00 0.00 0.00 86 1012.8
20210615093547 75 308 0.0 0.0 0.00 0.00 0.00 85 1012.9
20210615092546 75 308 0.0 0.0 0.00 0.00 0.00 86 1012.8
20210615091547 75 308 0.0 0.0 0.00 0.00 0.00 85 1012.9
20210615090546 75 308 0.0 0.0 0.00 0.00 0.00 85 1012.9
20210615085547 76 308 0.0 0.0 0.00 0.00 0.00 84 1012.8
20210615084547 76 308 0.0 0.0 0.00 0.00 0.00 84 1012.8
20210615083546 76 308 0.0 0.0 0.00 0.00 0.00 84 1012.7
20210615082546 76 308 0.0 0.0 0.00 0.00 0.00 84 1012.7
20210615081547 76 308 0.0 0.0 0.00 0.00 0.00 83 1012.7
20210615080546 77 308 0.0 0.0 0.00 0.00 0.00 82 1012.8
20210615075547 77 308 0.0 0.0 0.00 0.00 0.00 81 1012.7
20210615074547 77 308 0.0 0.0 0.00 0.00 0.00 80 1012.7
20210615073547 78 308 0.0 0.0 0.00 0.00 0.00 80 1012.5
20210615072547 78 308 0.0 0.0 0.00 0.00 0.00 79 1012.6
20210615071547 78 308 0.0 0.0 0.00 0.00 0.00 79 1012.6
20210615070547 78 308 0.0 0.0 0.00 0.00 0.00 79 1012.7
20210615065547 79 308 0.0 0.0 0.00 0.00 0.00 78 1012.8
20210615064547 79 308 0.0 0.0 0.00 0.00 0.00 78 1012.8
20210615063547 79 308 0.0 0.0 0.00 0.00 0.00 77 1012.8
20210615062547 80 308 0.0 0.0 0.00 0.00 0.00 76 1012.9
20210615061547 80 308 0.0 0.0 0.00 0.00 0.00 76 1012.8
20210615060547 80 308 0.0 0.0 0.00 0.00 0.00 76 1012.8
20210615055548 80 308 0.0 0.0 0.00 0.00 0.00 75 1012.9
20210615054547 80 308 0.0 0.0 0.00 0.00 0.00 74 1012.9
20210615053547 81 308 0.0 0.0 0.00 0.00 0.00 73 1013.0
20210615043547 83 308 0.0 0.0 0.00 0.00 0.00 67 1012.9
20210615042547 84 308 0.0 0.0 0.00 0.00 0.00 66 1012.9
20210615041547 84 308 0.0 0.0 0.00 0.00 0.00 65 1012.9
20210615040547 84 308 0.0 0.0 0.00 0.00 0.00 64 1012.8
20210615032547 84 5 0.0 4.0 0.00 0.00 0.00 63 1012.5
20210615031547 85 128 0.0 0.0 0.00 0.00 0.00 62 1012.2
20210615030547 85 128 0.0 1.0 0.00 0.00 0.00 61 1011.9
20210615025547 86 148 0.0 2.0 0.00 0.00 0.00 61 1011.8
20210615022547 86 172 0.0 2.0 0.00 0.00 0.00 64 1011.6
20210615021547 87 155 0.0 0.0 0.00 0.00 0.00 63 1011.5